Tracking 29892 objects as of 21-Nov-2024
HD Live streaming from Space Station
objects crossing your sky now

SL-6 R/B(2)

Track SL-6 R/B(2) now!


NORAD ID: 13016
Int'l Code: 1981-123D
Perigee: 629.5 km
Apogee: 33,718.3 km
Inclination: 62.3 °
Period: 599.2 minutes
Semi major axis: 23544 km
RCS: 7.8128 m2 (large)
Launch date: December 23, 1981
Source: Commonwealth of Independent States (former USSR) (CIS)
Launch site: TYURATAM MISSILE AND SPACE COMPLEX (TTMTR)

Note: This is a ROCKET BODY
Your satellite tracking list
Your tracking list is empty




NASA's NSSDC Master Catalog

Two Line Element Set (TLE):
1 13016U 81123D   24324.52083144  .00000158  00000-0  45167-3 0  9998
2 13016  62.2774 122.3981 7026732 278.2076  14.0598  2.40301793346544
Source of the keplerian elements: AFSPC